Marion, IN

7:13 AM EDT on June 28, 2017 (GMT -0400)
Marion Municipal

Weather History for KMZZ - February, 2014

Change the Weather History Date:

Tuesday, February 25, 2014

  Actual Average (KMIE) Record (KMIE)
Temperature  
Mean Temperature 19 °F -  
Max Temperature 52 °F 40 °F 67 °F (1976)
Min Temperature 14 °F 23 °F -5 °F (1967)
Degree Days  
Heating Degree Days 46    
Moisture  
Dew Point 13 °F    
Average Humidity 72    
Maximum Humidity 83    
Minimum Humidity 61    
Precipitation  
Precipitation 0.00 in - - ()
Sea Level Pressure  
Sea Level Pressure 30.15 in    
Wind  
Wind Speed 11 mph (WNW)    
Max Wind Speed 21 mph    
Max Gust Speed 29 mph    
Visibility 8 miles    
Events Snow    
Averages and records for this station are not official NWS values.
T = Trace of Precipitation, MM = Missing Value Source: NWS Daily Summary

Daily Weather History Graph

Daily Weather History Graph

Search for Another Location

Airport or City:

Trip Planner

Search our weather history database for the weather conditions in past years. The results will help you decide how hot, cold, wet, or windy it might be!

Date:

Astronomy

Feb. 25, 2014 Rise Set
Actual Time 7:22 AM EST 6:29 PM EST
Civil Twilight 6:54 AM EST 6:57 PM EST
Nautical Twilight 6:23 AM EST 7:28 PM EST
Astronomical Twilight 5:51 AM EST 8:00 PM EST
Moon 4:17 AM EST (2/25) 2:34 PM EST (2/25)
Length of Visible Light 12h 02m
Length of Day
11h 07m
Waning Crescent, 18% of the Moon is Illuminated
Feb 25
Waning Crescent
Mar 1
New
Mar 8
First Quarter
Mar 16
Full
Mar 23
Last Quarter

Hourly Weather History & Observations

Time (EST) Temp. Windchill Dew Point Humidity Pressure Visibility Wind Dir Wind Speed Gust Speed Precip Events Conditions
12:15 AM 22.1 °F 12.8 °F 13.1 °F 68% 30.19 in 10.0 mi WNW 8.1 mph - N/A   Mostly Cloudy
12:35 AM 22.1 °F 12.8 °F 12.6 °F 67% 30.18 in 10.0 mi WNW 8.1 mph - N/A   Overcast
12:55 AM 22.1 °F 12.0 °F 12.2 °F 66% 30.18 in 10.0 mi WNW 9.2 mph - N/A   Overcast
1:15 AM 21.9 °F 11.0 °F 12.2 °F 66% 30.19 in 10.0 mi WNW 10.4 mph - N/A   Mostly Cloudy
1:35 AM 21.9 °F 9.8 °F 12.6 °F 67% 30.18 in 10.0 mi WNW 12.7 mph - N/A   Mostly Cloudy
1:55 AM 21.7 °F 10.2 °F 12.6 °F 68% 30.18 in 10.0 mi WNW 11.5 mph - N/A   Overcast
2:15 AM 21.7 °F 9.6 °F 12.6 °F 68% 30.18 in 10.0 mi WNW 12.7 mph 19.6 mph N/A   Overcast
2:30 AM 21.6 °F 10.6 °F 12.4 °F 68% 30.18 in 10.0 mi WNW 10.4 mph - N/A   Overcast
2:55 AM 21.2 °F 9.5 °F 12.2 °F 68% 30.18 in 10.0 mi WNW 11.5 mph - N/A   Overcast
3:10 AM 21.2 °F 7.8 °F 12.6 °F 69% 30.19 in 10.0 mi NW 15.0 mph - N/A   Overcast
4:55 AM 19.0 °F 9.0 °F 13.6 °F 79% 30.18 in 7.0 mi NW 8.1 mph - N/A   Overcast
5:15 AM 18.9 °F 10.8 °F 13.8 °F 81% 30.17 in 7.0 mi NW 5.8 mph - N/A   Overcast
5:35 AM 18.9 °F 9.8 °F 13.6 °F 80% 30.17 in 7.0 mi WNW 6.9 mph - N/A   Overcast
5:55 AM 18.5 °F 8.4 °F 13.3 °F 80% 30.17 in 10.0 mi WNW 8.1 mph - N/A   Overcast
6:15 AM 18.5 °F 10.4 °F 13.3 °F 80% 30.17 in 10.0 mi WNW 5.8 mph - N/A   Overcast
6:35 AM 18.5 °F 9.3 °F 13.5 °F 81% 30.17 in 10.0 mi WNW 6.9 mph - N/A   Overcast
6:55 AM 18.5 °F 10.4 °F 13.3 °F 80% 30.18 in 10.0 mi WNW 5.8 mph - N/A   Overcast
7:15 AM 18.5 °F 9.3 °F 13.6 °F 81% 30.18 in 2.0 mi WNW 6.9 mph - N/A Snow Light Snow
7:35 AM 18.3 °F 8.2 °F 13.8 °F 83% 30.18 in 10.0 mi WNW 8.1 mph - N/A   Overcast
7:55 AM 18.1 °F 8.9 °F 13.6 °F 83% 30.19 in 10.0 mi WNW 6.9 mph - N/A   Overcast
8:15 AM 18.5 °F 9.3 °F 14.0 °F 83% 30.19 in 10.0 mi WNW 6.9 mph - N/A   Overcast
8:35 AM 18.7 °F 7.8 °F 14.2 °F 83% 30.20 in 10.0 mi West 9.2 mph - N/A   Overcast
8:55 AM 19.0 °F 8.2 °F 14.0 °F 81% 30.21 in 1.8 mi WNW 9.2 mph - N/A Snow Light Snow
9:15 AM 19.2 °F 7.0 °F 13.8 °F 80% 30.21 in 7.0 mi WNW 11.5 mph - N/A   Overcast
9:35 AM 19.6 °F 7.4 °F 13.6 °F 78% 30.21 in 10.0 mi West 11.5 mph - N/A   Overcast
9:55 AM 19.8 °F 8.3 °F 13.5 °F 77% 30.20 in 3.0 mi WNW 10.4 mph - N/A Snow Light Snow
10:15 AM 20.1 °F 9.5 °F 13.1 °F 74% 30.20 in 2.5 mi NW 9.2 mph - N/A Snow Light Snow
10:35 AM 20.8 °F 11.2 °F 13.1 °F 72% 30.20 in 4.0 mi WNW 8.1 mph - N/A   Haze
10:55 AM 21.2 °F 12.6 °F 13.3 °F 72% 30.19 in 10.0 mi WNW 6.9 mph - N/A   Mostly Cloudy
11:15 AM 21.2 °F 10.1 °F 12.7 °F 70% 30.20 in 10.0 mi WNW 10.4 mph - N/A   Mostly Cloudy
11:35 AM 21.7 °F 12.3 °F 13.3 °F 70% 30.19 in 2.0 mi NW 8.1 mph - N/A   Haze
12:15 PM 22.1 °F 13.7 °F 13.5 °F 69% 30.19 in 10.0 mi WNW 6.9 mph - N/A   Mostly Cloudy
12:35 PM 22.1 °F 12.0 °F 13.5 °F 69% 30.18 in 10.0 mi WNW 9.2 mph - N/A   Overcast
12:55 PM 22.5 °F 11.7 °F 14.0 °F 70% 30.17 in 10.0 mi WNW 10.4 mph - N/A   Overcast
1:15 PM 23.4 °F 12.8 °F 14.0 °F 67% 30.16 in 10.0 mi WNW 10.4 mph - N/A   Overcast
1:35 PM 23.7 °F 12.1 °F 14.7 °F 69% 30.15 in 3.0 mi WNW 12.7 mph - N/A   Haze
1:55 PM 24.1 °F 12.0 °F 15.1 °F 69% 30.15 in 10.0 mi West 13.8 mph 18.4 mph N/A   Overcast
2:15 PM 23.9 °F 11.2 °F 14.7 °F 68% 30.14 in 10.0 mi West 15.0 mph - N/A   Overcast
2:35 PM 24.1 °F 11.0 °F 14.9 °F 68% 30.14 in 10.0 mi West 16.1 mph 21.9 mph N/A   Overcast
2:55 PM 24.1 °F 12.0 °F 15.3 °F 69% 30.14 in 3.0 mi WNW 13.8 mph 19.6 mph N/A Snow Light Snow
3:15 PM 23.9 °F 10.8 °F 14.9 °F 69% 30.14 in 3.0 mi WNW 16.1 mph 19.6 mph N/A Snow Light Snow
3:35 PM 23.9 °F 10.3 °F 15.4 °F 70% 30.14 in 5.0 mi West 17.3 mph - N/A   Haze
3:55 PM 23.9 °F 10.8 °F 14.9 °F 69% 30.14 in 10.0 mi WNW 16.1 mph 20.7 mph N/A   Overcast
4:15 PM 23.7 °F 11.0 °F 14.5 °F 68% 30.13 in 5.0 mi WNW 15.0 mph 20.7 mph N/A Snow Light Snow
4:35 PM 23.7 °F 11.0 °F 14.9 °F 69% 30.13 in 5.0 mi WNW 15.0 mph - N/A Snow Light Snow
4:55 PM 23.7 °F 9.7 °F 14.4 °F 67% 30.13 in 5.0 mi WNW 18.4 mph 23.0 mph N/A   Haze
5:15 PM 23.4 °F 9.2 °F 13.8 °F 67% 30.12 in 10.0 mi West 18.4 mph 21.9 mph N/A   Mostly Cloudy
5:35 PM 23.0 °F 10.1 °F 13.8 °F 68% 30.12 in 10.0 mi WNW 15.0 mph - N/A   Mostly Cloudy
5:55 PM 23.0 °F 8.7 °F 14.4 °F 70% 30.12 in 10.0 mi WNW 18.4 mph - N/A   Mostly Cloudy
6:15 PM 22.8 °F 8.9 °F 14.2 °F 69% 30.11 in 10.0 mi West 17.3 mph - N/A   Mostly Cloudy
6:35 PM 22.6 °F 10.1 °F 14.7 °F 72% 30.10 in 10.0 mi West 13.8 mph - N/A   Mostly Cloudy
6:55 PM 22.3 °F 8.7 °F 14.5 °F 72% 30.09 in 10.0 mi West 16.1 mph - N/A   Scattered Clouds
7:15 PM 22.1 °F 9.5 °F 14.0 °F 71% 30.09 in 10.0 mi West 13.8 mph - N/A   Scattered Clouds
7:35 PM 21.9 °F 7.8 °F 14.0 °F 72% 30.10 in 10.0 mi WNW 17.3 mph - N/A   Scattered Clouds
7:55 PM 21.9 °F 7.8 °F 14.0 °F 72% 30.10 in 5.0 mi West 17.3 mph - N/A Snow Light Snow
8:15 PM 21.7 °F 7.1 °F 14.2 °F 73% 30.10 in 7.0 mi West 18.4 mph 23.0 mph N/A   Overcast
8:35 PM 21.2 °F 5.6 °F 13.6 °F 73% 30.10 in 10.0 mi West 20.7 mph 24.2 mph N/A   Overcast
8:55 PM 20.8 °F 5.1 °F 12.7 °F 71% 30.10 in 10.0 mi West 20.7 mph 26.5 mph N/A   Scattered Clouds
9:15 PM 20.3 °F 5.7 °F 12.4 °F 71% 30.11 in 10.0 mi WNW 17.3 mph 21.9 mph N/A   Mostly Cloudy
9:35 PM 20.1 °F 5.4 °F 12.2 °F 71% 30.10 in 4.0 mi WNW 17.3 mph - N/A Snow Light Snow
9:55 PM 19.8 °F 5.0 °F 11.7 °F 71% 30.11 in 4.0 mi West 17.3 mph - N/A Snow Light Snow
10:15 PM 19.0 °F 3.2 °F 11.1 °F 71% 30.11 in 10.0 mi WNW 19.6 mph 25.3 mph N/A Snow Light Snow
10:35 PM 17.6 °F 1.3 °F 9.7 °F 71% 30.11 in 4.0 mi WNW 19.6 mph 28.8 mph N/A Snow Light Snow
10:55 PM 16.3 °F -0.8 °F 6.4 °F 65% 30.11 in 10.0 mi WNW 20.7 mph 27.6 mph N/A   Clear
11:15 PM 15.1 °F -2.0 °F 3.7 °F 61% 30.11 in 4.0 mi WNW 19.6 mph - N/A Snow Light Snow
11:35 PM 14.7 °F -2.5 °F 4.5 °F 64% 30.12 in 5.0 mi WNW 19.6 mph 23.0 mph N/A Snow Light Snow
11:55 PM 14.2 °F -2.3 °F 5.2 °F 67% 30.11 in 4.0 mi WNW 17.3 mph - N/A Snow Light Snow